Location: Mauna Kea VIS
(19.7591°N, 155.4561°W)
Time: 22:50:01
(UTC-10:00)

BlueWalker 3 - Pass Details

Date: 11 December 2025
Orbit: 451 x 463 km, 53.2° (Epoch: 18 January)

Event Time Altitude Azimuth Distance (km) Brightness Sun altitude
Rises 18:56:19 0° 313° (NW) 2,483 5.9 -16.6°
Reaches altitude 10° 18:58:33 10° 305° (NW) 1,607 5.0 -17.1°
Maximum altitude 19:01:56 38° 236° (SW) 715 3.3 -17.9°
Drops below altitude 10° 19:05:19 10° 166° (SSE) 1,600 4.5 -18.6°
Sets 19:07:32 0° 158° (SSE) 2,471 5.4 -19.1°
